,,PressureMeas_1m,,PRMeasQMR101_1,,RHStat155_1m_1,,SRMeasQMS101R_1m,,TAStat155_1m_1,,GenWind_1,,GenWind_1,
2019-11-12, 00:00:06,VALID,918.002,VALID,0.0,VALID,97.345,VALID,-0.003,VALID,20.813,INVALID,360.0,VALID,0.0,
2019-11-12, 00:01:06,VALID,917.99,VALID,0.0,VALID,97.59,VALID,-0.006,VALID,20.804,INVALID,360.0,VALID,0.0,
2019-11-12, 00:02:06,VALID,917.973,VALID,0.0,VALID,97.692,VALID,-0.011,VALID,20.795,INVALID,360.0,VALID,0.0,
2019-11-12, 00:03:06,VALID,917.969,VALID,0.0,VALID,97.665,VALID,-0.008,VALID,20.761,INVALID,360.0,VALID,0.0,
2019-11-12, 00:04:06,VALID,917.969,VALID,0.0,VALID,97.843,VALID,0.006,VALID,20.723,INVALID,360.0,VALID,0.0,
2019-11-12, 00:05:06,VALID,917.941,VALID,0.0,VALID,98.064,VALID,-0.005,VALID,20.725,INVALID,360.0,VALID,0.0,
2019-11-12, 00:06:06,VALID,917.934,VALID,0.0,VALID,98.086,VALID,-0.007,VALID,20.726,INVALID,360.0,VALID,0.0,
2019-11-12, 00:07:06,VALID,917.93,VALID,0.0,VALID,98.136,VALID,-0.001,VALID,20.718,INVALID,360.0,VALID,0.0,
2019-11-12, 00:08:06,VALID,917.928,VALID,0.0,VALID,98.152,VALID,-0.009,VALID,20.733,INVALID,360.0,VALID,0.0,
2019-11-12, 00:09:06,VALID,917.931,VALID,0.0,VALID,98.087,VALID,-0.003,VALID,20.739,INVALID,360.0,VALID,0.0,
2019-11-12, 00:10:06,VALID,917.921,VALID,0.0,VALID,98.002,VALID,0.006,VALID,20.742,INVALID,360.0,VALID,0.0,
2019-11-12, 00:11:06,VALID,917.903,VALID,0.0,VALID,97.956,VALID,0.026,VALID,20.726,INVALID,360.0,VALID,0.0,
2019-11-12, 00:12:06,VALID,917.903,VALID,0.0,VALID,97.98,VALID,-0.008,VALID,20.723,INVALID,360.0,VALID,0.0,
2019-11-12, 00:13:06,VALID,917.898,VALID,0.0,VALID,97.855,VALID,-0.002,VALID,20.698,INVALID,360.0,VALID,0.0,
2019-11-12, 00:14:06,VALID,917.882,VALID,0.0,VALID,97.886,VALID,-0.014,VALID,20.686,INVALID,360.0,VALID,0.0,
2019-11-12, 00:15:06,VALID,917.866,VALID,0.0,VALID,97.909,VALID,0.003,VALID,20.684,INVALID,360.0,VALID,0.0,
2019-11-12, 00:16:06,VALID,917.836,VALID,0.0,VALID,97.915,VALID,0.001,VALID,20.677,INVALID,360.0,VALID,0.0,
2019-11-12, 00:17:06,VALID,917.814,VALID,0.0,VALID,97.999,VALID,-0.016,VALID,20.681,INVALID,360.0,VALID,0.0,
2019-11-12, 00:18:06,VALID,917.79,VALID,0.0,VALID,97.953,VALID,-0.0,VALID,20.681,INVALID,360.0,VALID,0.0,
2019-11-12, 00:19:06,VALID,917.771,VALID,0.0,VALID,97.934,VALID,-0.002,VALID,20.677,INVALID,360.0,VALID,0.0,
2019-11-12, 00:20:06,VALID,917.764,VALID,0.0,VALID,97.978,VALID,-0.001,VALID,20.687,INVALID,360.0,VALID,0.0,
2019-11-12, 00:21:06,VALID,917.743,VALID,0.0,VALID,97.875,VALID,-0.019,VALID,20.677,INVALID,360.0,VALID,0.0,
2019-11-12, 00:22:06,VALID,917.713,VALID,0.0,VALID,97.817,VALID,-0.009,VALID,20.647,INVALID,360.0,VALID,0.0,
2019-11-12, 00:23:06,VALID,917.699,VALID,0.0,VALID,97.845,VALID,0.009,VALID,20.604,INVALID,360.0,VALID,0.0,
2019-11-12, 00:24:06,VALID,917.69,VALID,0.0,VALID,97.974,VALID,0.014,VALID,20.568,INVALID,360.0,VALID,0.0,
2019-11-12, 00:25:06,VALID,917.678,VALID,0.0,VALID,98.088,VALID,0.02,VALID,20.553,INVALID,360.0,VALID,0.0,
2019-11-12, 00:26:06,VALID,917.677,VALID,0.0,VALID,98.147,VALID,0.018,VALID,20.556,INVALID,360.0,VALID,0.0,
2019-11-12, 00:27:06,VALID,917.693,VALID,0.0,VALID,98.138,VALID,0.009,VALID,20.56,INVALID,360.0,VALID,0.0,
2019-11-12, 00:28:06,VALID,917.684,VALID,0.0,VALID,98.076,VALID,0.009,VALID,20.557,INVALID,360.0,VALID,0.0,
2019-11-12, 00:29:06,VALID,917.669,VALID,0.0,VALID,98.089,VALID,0.023,VALID,20.553,INVALID,360.0,VALID,0.0,
2019-11-12, 00:30:06,VALID,917.654,VALID,0.0,VALID,98.086,VALID,0.008,VALID,20.548,INVALID,360.0,VALID,0.0,
2019-11-12, 00:31:06,VALID,917.652,VALID,0.0,VALID,98.049,VALID,0.008,VALID,20.541,INVALID,360.0,VALID,0.0,
2019-11-12, 00:32:06,VALID,917.622,VALID,0.0,VALID,98.032,VALID,0.01,VALID,20.529,VALID,49.0,VALID,0.0,
2019-11-12, 00:33:06,VALID,917.618,VALID,0.0,VALID,98.097,VALID,0.001,VALID,20.555,INVALID,360.0,VALID,0.0,
2019-11-12, 00:34:06,VALID,917.595,VALID,0.0,VALID,98.022,VALID,-0.002,VALID,20.568,INVALID,360.0,VALID,0.0,
2019-11-12, 00:35:06,VALID,917.603,VALID,0.0,VALID,97.914,VALID,0.019,VALID,20.578,INVALID,360.0,VALID,0.0,
2019-11-12, 00:36:06,VALID,917.597,VALID,0.0,VALID,97.785,VALID,0.013,VALID,20.587,INVALID,360.0,VALID,0.0,
2019-11-12, 00:37:06,VALID,917.61,VALID,0.0,VALID,97.665,VALID,0.01,VALID,20.592,INVALID,360.0,VALID,0.0,
2019-11-12, 00:38:06,VALID,917.588,VALID,0.0,VALID,97.614,VALID,0.01,VALID,20.608,INVALID,360.0,VALID,0.0,
2019-11-12, 00:39:06,VALID,917.599,VALID,0.0,VALID,97.349,VALID,0.008,VALID,20.568,INVALID,360.0,VALID,0.0,
2019-11-12, 00:40:06,VALID,917.593,VALID,0.0,VALID,97.157,VALID,0.006,VALID,20.538,INVALID,360.0,VALID,0.0,
2019-11-12, 00:41:06,VALID,917.575,VALID,0.0,VALID,97.093,VALID,0.006,VALID,20.531,INVALID,360.0,VALID,0.0,
2019-11-12, 00:42:06,VALID,917.572,VALID,0.0,VALID,96.999,VALID,0.014,VALID,20.527,INVALID,360.0,VALID,0.0,
2019-11-12, 00:43:06,VALID,917.555,VALID,0.0,VALID,97.018,VALID,0.006,VALID,20.51,INVALID,360.0,VALID,0.0,
2019-11-12, 00:44:06,VALID,917.562,VALID,0.0,VALID,97.16,VALID,0.001,VALID,20.509,INVALID,360.0,VALID,0.0,
2019-11-12, 00:45:06,VALID,917.536,VALID,0.0,VALID,97.318,VALID,0.012,VALID,20.495,INVALID,360.0,VALID,0.0,
2019-11-12, 00:46:06,VALID,917.548,VALID,0.0,VALID,97.431,VALID,0.013,VALID,20.456,INVALID,360.0,VALID,0.0,
2019-11-12, 00:47:06,VALID,917.548,VALID,0.0,VALID,97.573,VALID,0.003,VALID,20.437,INVALID,360.0,VALID,0.0,
2019-11-12, 00:48:06,VALID,917.552,VALID,0.0,VALID,97.737,VALID,0.02,VALID,20.45,INVALID,360.0,VALID,0.0,
2019-11-12, 00:49:06,VALID,917.555,VALID,0.0,VALID,97.665,VALID,0.001,VALID,20.445,INVALID,360.0,VALID,0.0,
2019-11-12, 00:50:06,VALID,917.526,VALID,0.0,VALID,97.664,VALID,0.014,VALID,20.464,INVALID,360.0,VALID,0.0,
2019-11-12, 00:51:06,VALID,917.541,VALID,0.0,VALID,97.612,VALID,0.002,VALID,20.486,INVALID,360.0,VALID,0.0,
2019-11-12, 00:52:06,VALID,917.545,VALID,0.0,VALID,97.583,VALID,-0.004,VALID,20.508,INVALID,360.0,VALID,0.0,
2019-11-12, 00:53:06,VALID,917.539,VALID,0.0,VALID,97.66,VALID,-0.015,VALID,20.557,INVALID,360.0,VALID,0.0,
2019-11-12, 00:54:06,VALID,917.515,VALID,0.0,VALID,97.649,VALID,-0.023,VALID,20.605,INVALID,360.0,VALID,0.0,
2019-11-12, 00:55:06,VALID,917.509,VALID,0.0,VALID,97.542,VALID,0.0,VALID,20.626,INVALID,360.0,VALID,0.0,
2019-11-12, 00:56:06,VALID,917.496,VALID,0.0,VALID,97.479,VALID,-0.005,VALID,20.64,INVALID,360.0,VALID,0.0,
2019-11-12, 00:57:06,VALID,917.497,VALID,0.0,VALID,97.283,VALID,-0.008,VALID,20.619,INVALID,360.0,VALID,0.0,
2019-11-12, 00:58:06,VALID,917.496,VALID,0.0,VALID,97.164,VALID,-0.011,VALID,20.582,INVALID,360.0,VALID,0.0,
2019-11-12, 00:59:06,VALID,917.507,VALID,0.0,VALID,97.36,VALID,-0.031,VALID,20.566,INVALID,360.0,VALID,0.0,
2019-11-12, 01:00:06,VALID,917.492,VALID,0.0,VALID,97.488,VALID,-0.002,VALID,20.566,INVALID,360.0,VALID,0.0,
2019-11-12, 01:01:06,VALID,917.504,VALID,0.0,VALID,97.616,VALID,-0.016,VALID,20.572,INVALID,360.0,VALID,0.0,
2019-11-12, 01:02:06,VALID,917.519,VALID,0.0,VALID,97.675,VALID,-0.014,VALID,20.575,INVALID,360.0,VALID,0.0,
2019-11-12, 01:03:06,VALID,917.527,VALID,0.0,VALID,97.643,VALID,-0.006,VALID,20.564,INVALID,360.0,VALID,0.0,
2019-11-12, 01:04:06,VALID,917.521,VALID,0.0,VALID,97.736,VALID,-0.016,VALID,20.567,INVALID,360.0,VALID,0.0,
2019-11-12, 01:05:06,VALID,917.528,VALID,0.0,VALID,97.816,VALID,-0.012,VALID,20.57,INVALID,360.0,VALID,0.0,
2019-11-12, 01:06:06,VALID,917.529,VALID,0.0,VALID,97.838,VALID,-0.021,VALID,20.565,INVALID,360.0,VALID,0.0,
2019-11-12, 01:07:06,VALID,917.527,VALID,0.0,VALID,97.888,VALID,0.026,VALID,20.551,INVALID,360.0,VALID,0.0,
2019-11-12, 01:08:06,VALID,917.52,VALID,0.0,VALID,97.945,VALID,0.041,VALID,20.577,INVALID,360.0,VALID,0.0,
2019-11-12, 01:09:06,VALID,917.535,VALID,0.0,VALID,97.869,VALID,0.042,VALID,20.582,INVALID,360.0,VALID,0.0,
2019-11-12, 01:10:06,VALID,917.554,VALID,0.0,VALID,97.942,VALID,0.036,VALID,20.559,INVALID,360.0,VALID,0.0,
2019-11-12, 01:11:06,VALID,917.563,VALID,0.0,VALID,98.135,VALID,0.044,VALID,20.534,INVALID,360.0,VALID,0.0,
2019-11-12, 01:12:06,VALID,917.562,VALID,0.0,VALID,98.309,VALID,0.041,VALID,20.519,INVALID,360.0,VALID,0.0,
2019-11-12, 01:13:06,VALID,917.555,VALID,0.0,VALID,98.523,VALID,0.032,VALID,20.514,INVALID,360.0,VALID,0.0,
2019-11-12, 01:14:06,VALID,917.566,VALID,0.0,VALID,98.661,VALID,0.034,VALID,20.526,INVALID,360.0,VALID,0.0,
2019-11-12, 01:15:06,VALID,917.559,VALID,0.0,VALID,98.666,VALID,0.019,VALID,20.524,INVALID,360.0,VALID,0.0,
2019-11-12, 01:16:06,VALID,917.557,VALID,0.0,VALID,98.692,VALID,0.041,VALID,20.536,INVALID,360.0,VALID,0.0,
2019-11-12, 01:17:06,VALID,917.535,VALID,0.0,VALID,98.753,VALID,0.046,VALID,20.557,INVALID,360.0,VALID,0.0,
2019-11-12, 01:18:06,VALID,917.523,VALID,0.0,VALID,98.84,VALID,0.037,VALID,20.591,INVALID,360.0,VALID,0.0,
2019-11-12, 01:19:06,VALID,917.508,VALID,0.0,VALID,98.828,VALID,0.038,VALID,20.597,INVALID,360.0,VALID,0.0,
2019-11-12, 01:20:06,VALID,917.499,VALID,0.0,VALID,98.809,VALID,0.034,VALID,20.597,INVALID,360.0,VALID,0.0,
2019-11-12, 01:21:06,VALID,917.477,VALID,0.0,VALID,98.758,VALID,0.03,VALID,20.594,INVALID,360.0,VALID,0.0,
2019-11-12, 01:22:06,VALID,917.49,VALID,0.0,VALID,98.732,VALID,0.009,VALID,20.594,INVALID,360.0,VALID,0.0,
2019-11-12, 01:23:06,VALID,917.477,VALID,0.0,VALID,98.712,VALID,-0.01,VALID,20.609,INVALID,360.0,VALID,0.0,
2019-11-12, 01:24:06,VALID,917.47,VALID,0.0,VALID,98.695,VALID,0.004,VALID,20.615,INVALID,360.0,VALID,0.0,
2019-11-12, 01:25:06,VALID,917.481,VALID,0.0,VALID,98.735,VALID,0.006,VALID,20.589,INVALID,360.0,VALID,0.0,
2019-11-12, 01:26:06,VALID,917.475,VALID,0.0,VALID,98.824,VALID,0.014,VALID,20.566,INVALID,360.0,VALID,0.0,
2019-11-12, 01:27:06,VALID,917.469,VALID,0.0,VALID,99.027,VALID,0.011,VALID,20.575,INVALID,360.0,VALID,0.0,
2019-11-12, 01:28:06,VALID,917.461,VALID,0.0,VALID,99.092,VALID,0.007,VALID,20.543,INVALID,360.0,VALID,0.0,
2019-11-12, 01:29:06,VALID,917.472,VALID,0.0,VALID,99.191,VALID,0.001,VALID,20.541,INVALID,360.0,VALID,0.0,
2019-11-12, 01:30:06,VALID,917.468,VALID,0.0,VALID,99.245,VALID,0.001,VALID,20.524,INVALID,360.0,VALID,0.0,
2019-11-12, 01:31:06,VALID,917.44,VALID,0.0,VALID,99.298,VALID,-0.002,VALID,20.53,INVALID,360.0,VALID,0.0,
2019-11-12, 01:32:06,VALID,917.432,VALID,0.0,VALID,99.429,VALID,-0.005,VALID,20.567,INVALID,360.0,VALID,0.0,
2019-11-12, 01:33:06,VALID,917.435,VALID,0.0,VALID,99.451,VALID,-0.006,VALID,20.566,INVALID,360.0,VALID,0.0,
2019-11-12, 01:34:06,VALID,917.394,VALID,0.0,VALID,99.455,VALID,0.003,VALID,20.578,INVALID,360.0,VALID,0.0,
2019-11-12, 01:35:06,VALID,917.379,VALID,0.0,VALID,99.441,VALID,0.001,VALID,20.571,INVALID,360.0,VALID,0.0,
2019-11-12, 01:36:06,VALID,917.378,VALID,0.0,VALID,99.382,VALID,-0.01,VALID,20.532,INVALID,360.0,VALID,0.0,
2019-11-12, 01:37:06,VALID,917.357,VALID,0.0,VALID,99.459,VALID,0.004,VALID,20.548,INVALID,360.0,VALID,0.0,
2019-11-12, 01:38:06,VALID,917.354,VALID,0.0,VALID,99.498,VALID,-0.0,VALID,20.556,INVALID,360.0,VALID,0.0,
2019-11-12, 01:39:06,VALID,917.369,VALID,0.0,VALID,99.507,VALID,0.02,VALID,20.549,INVALID,360.0,VALID,0.0,
2019-11-12, 01:40:06,VALID,917.334,VALID,0.0,VALID,99.548,VALID,0.02,VALID,20.553,INVALID,360.0,VALID,0.0,
2019-11-12, 01:41:06,VALID,917.322,VALID,0.0,VALID,99.561,VALID,0.028,VALID,20.562,INVALID,360.0,VALID,0.0,
2019-11-12, 01:42:06,VALID,917.317,VALID,0.0,VALID,99.612,VALID,0.015,VALID,20.595,INVALID,360.0,VALID,0.0,
2019-11-12, 01:43:06,VALID,917.294,VALID,0.0,VALID,99.636,VALID,0.023,VALID,20.617,INVALID,360.0,VALID,0.0,
2019-11-12, 01:44:06,VALID,917.284,VALID,0.0,VALID,99.644,VALID,0.016,VALID,20.631,INVALID,360.0,VALID,0.0,
2019-11-12, 01:45:06,VALID,917.279,VALID,0.0,VALID,99.622,VALID,0.014,VALID,20.664,INVALID,360.0,VALID,0.0,
2019-11-12, 01:46:06,VALID,917.253,VALID,0.0,VALID,99.544,VALID,0.021,VALID,20.664,INVALID,360.0,VALID,0.0,
2019-11-12, 01:47:06,VALID,917.24,VALID,0.0,VALID,99.497,VALID,0.011,VALID,20.666,INVALID,360.0,VALID,0.0,
2019-11-12, 01:48:06,VALID,917.222,VALID,0.0,VALID,99.452,VALID,0.005,VALID,20.658,INVALID,360.0,VALID,0.0,
2019-11-12, 01:49:06,VALID,917.213,VALID,0.0,VALID,99.39,VALID,0.004,VALID,20.63,INVALID,360.0,VALID,0.0,
2019-11-12, 01:50:06,VALID,917.194,VALID,0.0,VALID,99.385,VALID,0.026,VALID,20.63,INVALID,360.0,VALID,0.0,
2019-11-12, 01:51:06,VALID,917.167,VALID,0.0,VALID,99.387,VALID,0.016,VALID,20.62,INVALID,360.0,VALID,0.0,
2019-11-12, 01:52:06,VALID,917.162,VALID,0.0,VALID,99.418,VALID,-0.009,VALID,20.637,INVALID,360.0,VALID,0.0,
2019-11-12, 01:53:06,VALID,917.151,VALID,0.0,VALID,99.422,VALID,-0.035,VALID,20.655,INVALID,360.0,VALID,0.0,
2019-11-12, 01:54:06,VALID,917.145,VALID,0.0,VALID,99.344,VALID,-0.011,VALID,20.644,INVALID,360.0,VALID,0.0,
2019-11-12, 01:55:06,VALID,917.123,VALID,0.0,VALID,99.268,VALID,0.002,VALID,20.608,INVALID,360.0,VALID,0.0,
2019-11-12, 01:56:06,VALID,917.128,VALID,0.0,VALID,99.3,VALID,0.016,VALID,20.622,INVALID,360.0,VALID,0.0,
2019-11-12, 01:57:06,VALID,917.127,VALID,0.0,VALID,99.321,VALID,-0.018,VALID,20.643,INVALID,360.0,VALID,0.0,
2019-11-12, 01:58:06,VALID,917.111,VALID,0.0,VALID,99.278,VALID,-0.011,VALID,20.63,INVALID,360.0,VALID,0.0,
2019-11-12, 01:59:06,VALID,917.099,VALID,0.0,VALID,99.267,VALID,-0.009,VALID,20.624,INVALID,360.0,VALID,0.0,
2019-11-12, 02:00:06,VALID,917.105,VALID,0.0,VALID,99.299,VALID,-0.004,VALID,20.644,INVALID,360.0,VALID,0.0,
2019-11-12, 02:01:06,VALID,917.099,VALID,0.0,VALID,99.24,VALID,-0.003,VALID,20.625,INVALID,360.0,VALID,0.0,
2019-11-12, 02:02:06,VALID,917.082,VALID,0.0,VALID,99.116,VALID,-0.02,VALID,20.584,INVALID,360.0,VALID,0.0,
2019-11-12, 02:03:06,VALID,917.097,VALID,0.0,VALID,99.138,VALID,-0.022,VALID,20.575,INVALID,360.0,VALID,0.0,
2019-11-12, 02:04:06,VALID,917.085,VALID,0.0,VALID,99.207,VALID,-0.027,VALID,20.609,INVALID,360.0,VALID,0.0,
2019-11-12, 02:05:06,VALID,917.071,VALID,0.0,VALID,99.154,VALID,-0.025,VALID,20.614,INVALID,360.0,VALID,0.0,
2019-11-12, 02:06:06,VALID,917.075,VALID,0.0,VALID,99.148,VALID,-0.009,VALID,20.642,INVALID,360.0,VALID,0.0,
2019-11-12, 02:07:06,VALID,917.071,VALID,0.0,VALID,98.927,VALID,0.002,VALID,20.626,INVALID,360.0,VALID,0.0,
2019-11-12, 02:08:06,VALID,917.066,VALID,0.0,VALID,98.71,VALID,0.007,VALID,20.611,INVALID,360.0,VALID,0.0,
2019-11-12, 02:09:06,VALID,917.047,VALID,0.0,VALID,98.443,VALID,0.009,VALID,20.593,INVALID,360.0,VALID,0.0,
2019-11-12, 02:10:06,VALID,917.035,VALID,0.0,VALID,98.242,VALID,0.0,VALID,20.578,INVALID,360.0,VALID,0.0,
2019-11-12, 02:11:06,VALID,917.035,VALID,0.0,VALID,98.192,VALID,0.0,VALID,20.591,INVALID,360.0,VALID,0.0,
2019-11-12, 02:12:06,VALID,917.016,VALID,0.0,VALID,98.098,VALID,-0.0,VALID,20.59,INVALID,360.0,VALID,0.0,
2019-11-12, 02:13:06,VALID,916.999,VALID,0.0,VALID,98.055,VALID,-0.018,VALID,20.589,INVALID,360.0,VALID,0.0,
2019-11-12, 02:14:06,VALID,916.985,VALID,0.0,VALID,98.082,VALID,-0.012,VALID,20.613,INVALID,360.0,VALID,0.0,
2019-11-12, 02:15:06,VALID,916.973,VALID,0.0,VALID,97.967,VALID,-0.008,VALID,20.611,VALID,46.0,VALID,0.0,
2019-11-12, 02:16:06,VALID,916.966,VALID,0.0,VALID,97.964,VALID,-0.004,VALID,20.613,VALID,46.0,VALID,0.0,
2019-11-12, 02:17:06,VALID,916.953,VALID,0.0,VALID,97.829,VALID,-0.002,VALID,20.616,VALID,46.0,VALID,0.0,
2019-11-12, 02:18:06,VALID,916.954,VALID,0.0,VALID,97.687,VALID,-0.002,VALID,20.586,INVALID,360.0,VALID,0.0,
2019-11-12, 02:19:06,VALID,916.951,VALID,0.0,VALID,97.731,VALID,-0.005,VALID,20.571,INVALID,360.0,VALID,0.0,
2019-11-12, 02:20:06,VALID,916.912,VALID,0.0,VALID,97.786,VALID,-0.003,VALID,20.565,INVALID,360.0,VALID,0.0,
2019-11-12, 02:21:06,VALID,916.921,VALID,0.0,VALID,97.796,VALID,-0.002,VALID,20.564,INVALID,360.0,VALID,0.0,
2019-11-12, 02:22:06,VALID,916.912,VALID,0.0,VALID,97.783,VALID,-0.002,VALID,20.576,VALID,47.0,VALID,0.0,
2019-11-12, 02:23:06,VALID,916.921,VALID,0.0,VALID,97.814,VALID,-0.023,VALID,20.586,VALID,47.0,VALID,0.0,
2019-11-12, 02:24:06,VALID,916.899,VALID,0.0,VALID,97.875,VALID,-0.026,VALID,20.598,INVALID,360.0,VALID,0.0,
2019-11-12, 02:25:06,VALID,916.899,VALID,0.0,VALID,97.849,VALID,-0.039,VALID,20.605,INVALID,360.0,VALID,0.0,
2019-11-12, 02:26:06,VALID,916.907,VALID,0.0,VALID,97.713,VALID,-0.037,VALID,20.578,INVALID,360.0,VALID,0.0,
2019-11-12, 02:27:06,VALID,916.907,VALID,0.0,VALID,97.732,VALID,-0.027,VALID,20.544,INVALID,360.0,VALID,0.0,
2019-11-12, 02:28:06,VALID,916.902,VALID,0.0,VALID,97.851,VALID,-0.028,VALID,20.526,INVALID,360.0,VALID,0.0,
2019-11-12, 02:29:06,VALID,916.895,VALID,0.0,VALID,97.921,VALID,-0.015,VALID,20.508,INVALID,360.0,VALID,0.0,
2019-11-12, 02:30:06,VALID,916.881,VALID,0.0,VALID,98.052,VALID,-0.034,VALID,20.507,INVALID,360.0,VALID,0.0,
2019-11-12, 02:31:06,VALID,916.878,VALID,0.0,VALID,98.11,VALID,-0.011,VALID,20.526,INVALID,360.0,VALID,0.0,
2019-11-12, 02:32:06,VALID,916.864,VALID,0.0,VALID,98.05,VALID,-0.021,VALID,20.538,INVALID,360.0,VALID,0.0,
2019-11-12, 02:33:06,VALID,916.85,VALID,0.0,VALID,97.895,VALID,-0.022,VALID,20.525,INVALID,360.0,VALID,0.0,
2019-11-12, 02:34:06,VALID,916.838,VALID,0.0,VALID,97.844,VALID,-0.026,VALID,20.51,INVALID,360.0,VALID,0.0,
2019-11-12, 02:35:06,VALID,916.836,VALID,0.0,VALID,97.935,VALID,-0.019,VALID,20.501,INVALID,360.0,VALID,0.0,
2019-11-12, 02:36:06,VALID,916.811,VALID,0.0,VALID,98.065,VALID,-0.017,VALID,20.518,INVALID,360.0,VALID,0.0,
2019-11-12, 02:37:06,VALID,916.814,VALID,0.0,VALID,98.085,VALID,-0.0,VALID,20.523,INVALID,360.0,VALID,0.0,
2019-11-12, 02:38:06,VALID,916.826,VALID,0.0,VALID,98.011,VALID,0.028,VALID,20.509,INVALID,360.0,VALID,0.0,
2019-11-12, 02:39:06,VALID,916.821,VALID,0.0,VALID,98.014,VALID,0.01,VALID,20.513,INVALID,360.0,VALID,0.0,
2019-11-12, 02:40:06,VALID,916.825,VALID,0.0,VALID,98.073,VALID,0.017,VALID,20.531,INVALID,360.0,VALID,0.0,
2019-11-12, 02:41:06,VALID,916.807,VALID,0.0,VALID,98.076,VALID,0.013,VALID,20.538,INVALID,360.0,VALID,0.0,
2019-11-12, 02:42:06,VALID,916.794,VALID,0.0,VALID,98.018,VALID,0.002,VALID,20.535,INVALID,360.0,VALID,0.0,
2019-11-12, 02:43:06,VALID,916.771,VALID,0.0,VALID,97.936,VALID,0.017,VALID,20.507,INVALID,360.0,VALID,0.0,
2019-11-12, 02:44:06,VALID,916.764,VALID,0.0,VALID,97.88,VALID,0.007,VALID,20.495,INVALID,360.0,VALID,0.0,
2019-11-12, 02:45:06,VALID,916.759,VALID,0.0,VALID,97.981,VALID,0.012,VALID,20.504,INVALID,360.0,VALID,0.0,
2019-11-12, 02:46:06,VALID,916.757,VALID,0.0,VALID,98.029,VALID,-0.001,VALID,20.524,INVALID,360.0,VALID,0.0,
2019-11-12, 02:47:06,VALID,916.774,VALID,0.0,VALID,98.056,VALID,0.01,VALID,20.536,INVALID,360.0,VALID,0.0,
2019-11-12, 02:48:06,VALID,916.772,VALID,0.0,VALID,97.995,VALID,0.017,VALID,20.551,INVALID,360.0,VALID,0.0,
2019-11-12, 02:49:06,VALID,916.763,VALID,0.0,VALID,97.958,VALID,0.009,VALID,20.571,INVALID,360.0,VALID,0.0,
2019-11-12, 02:50:06,VALID,916.76,VALID,0.0,VALID,97.883,VALID,0.028,VALID,20.584,INVALID,360.0,VALID,0.0,
2019-11-12, 02:51:06,VALID,916.753,VALID,0.0,VALID,97.832,VALID,0.021,VALID,20.598,INVALID,360.0,VALID,0.0,
2019-11-12, 02:52:06,VALID,916.739,VALID,0.0,VALID,97.782,VALID,0.018,VALID,20.611,INVALID,360.0,VALID,0.0,
2019-11-12, 02:53:06,VALID,916.732,VALID,0.0,VALID,97.79,VALID,0.003,VALID,20.625,INVALID,360.0,VALID,0.0,
2019-11-12, 02:54:06,VALID,916.713,VALID,0.0,VALID,97.663,VALID,-0.005,VALID,20.586,INVALID,360.0,VALID,0.0,
2019-11-12, 02:55:06,VALID,916.691,VALID,0.0,VALID,97.565,VALID,0.026,VALID,20.553,INVALID,360.0,VALID,0.0,
2019-11-12, 02:56:06,VALID,916.693,VALID,0.0,VALID,97.578,VALID,0.013,VALID,20.533,INVALID,360.0,VALID,0.0,
2019-11-12, 02:57:06,VALID,916.681,VALID,0.0,VALID,97.735,VALID,0.02,VALID,20.543,INVALID,360.0,VALID,0.0,
2019-11-12, 02:58:06,VALID,916.676,VALID,0.0,VALID,97.863,VALID,0.008,VALID,20.547,INVALID,360.0,VALID,0.0,
2019-11-12, 02:59:06,VALID,916.673,VALID,0.0,VALID,97.9,VALID,0.02,VALID,20.543,INVALID,360.0,VALID,0.0,
2019-11-12, 03:00:06,VALID,916.681,VALID,0.0,VALID,97.719,VALID,0.013,VALID,20.519,INVALID,360.0,VALID,0.0,
2019-11-12, 03:01:06,VALID,916.663,VALID,0.0,VALID,97.679,VALID,0.006,VALID,20.528,INVALID,360.0,VALID,0.0,
2019-11-12, 03:02:06,VALID,916.654,VALID,0.0,VALID,97.605,VALID,0.019,VALID,20.498,INVALID,360.0,VALID,0.0,
2019-11-12, 03:03:06,VALID,916.641,VALID,0.0,VALID,97.724,VALID,-0.002,VALID,20.474,INVALID,360.0,VALID,0.0,
2019-11-12, 03:04:06,VALID,916.623,VALID,0.0,VALID,97.757,VALID,0.005,VALID,20.414,INVALID,360.0,VALID,0.0,
2019-11-12, 03:05:06,VALID,916.598,VALID,0.0,VALID,98.032,VALID,0.017,VALID,20.421,INVALID,360.0,VALID,0.0,
2019-11-12, 03:06:06,VALID,916.602,VALID,0.0,VALID,98.245,VALID,0.003,VALID,20.45,INVALID,360.0,VALID,0.0,
2019-11-12, 03:07:06,VALID,916.596,VALID,0.0,VALID,98.244,VALID,-0.011,VALID,20.467,INVALID,360.0,VALID,0.0,
2019-11-12, 03:08:06,VALID,916.596,VALID,0.0,VALID,98.169,VALID,-0.029,VALID,20.475,INVALID,360.0,VALID,0.0,
2019-11-12, 03:09:06,VALID,916.604,VALID,0.0,VALID,98.002,VALID,-0.029,VALID,20.472,INVALID,360.0,VALID,0.0,
2019-11-12, 03:10:06,VALID,916.618,VALID,0.0,VALID,97.826,VALID,-0.046,VALID,20.46,INVALID,360.0,VALID,0.0,
2019-11-12, 03:11:06,VALID,916.627,VALID,0.0,VALID,97.85,VALID,-0.052,VALID,20.456,INVALID,360.0,VALID,0.0,
2019-11-12, 03:12:06,VALID,916.635,VALID,0.0,VALID,97.931,VALID,-0.05,VALID,20.448,INVALID,360.0,VALID,0.0,
2019-11-12, 03:13:06,VALID,916.627,VALID,0.0,VALID,97.938,VALID,-0.043,VALID,20.421,INVALID,360.0,VALID,0.0,
2019-11-12, 03:14:06,VALID,916.616,VALID,0.0,VALID,98.124,VALID,-0.027,VALID,20.442,INVALID,360.0,VALID,0.0,
2019-11-12, 03:15:06,VALID,916.614,VALID,0.0,VALID,98.183,VALID,-0.025,VALID,20.474,INVALID,360.0,VALID,0.0,
2019-11-12, 03:16:06,VALID,916.612,VALID,0.0,VALID,98.121,VALID,-0.033,VALID,20.48,INVALID,360.0,VALID,0.0,
2019-11-12, 03:17:06,VALID,916.59,VALID,0.0,VALID,98.085,VALID,-0.03,VALID,20.49,INVALID,360.0,VALID,0.0,
2019-11-12, 03:18:06,VALID,916.579,VALID,0.0,VALID,97.998,VALID,-0.024,VALID,20.479,INVALID,360.0,VALID,0.0,
2019-11-12, 03:19:06,VALID,916.578,VALID,0.0,VALID,98.038,VALID,-0.023,VALID,20.491,INVALID,360.0,VALID,0.0,
2019-11-12, 03:20:06,VALID,916.577,VALID,0.0,VALID,97.896,VALID,-0.016,VALID,20.452,INVALID,360.0,VALID,0.0,
2019-11-12, 03:21:06,VALID,916.565,VALID,0.0,VALID,97.859,VALID,-0.021,VALID,20.438,INVALID,360.0,VALID,0.0,
2019-11-12, 03:22:06,VALID,916.575,VALID,0.0,VALID,97.828,VALID,0.013,VALID,20.42,INVALID,360.0,VALID,0.0,
2019-11-12, 03:23:06,VALID,916.566,VALID,0.0,VALID,98.023,VALID,0.004,VALID,20.396,INVALID,360.0,VALID,0.0,
2019-11-12, 03:24:06,VALID,916.56,VALID,0.0,VALID,98.234,VALID,0.023,VALID,20.375,INVALID,360.0,VALID,0.0,
2019-11-12, 03:25:06,VALID,916.567,VALID,0.0,VALID,98.43,VALID,0.011,VALID,20.376,INVALID,360.0,VALID,0.0,
2019-11-12, 03:26:06,VALID,916.572,VALID,0.0,VALID,98.487,VALID,0.023,VALID,20.374,INVALID,360.0,VALID,0.0,
2019-11-12, 03:27:06,VALID,916.563,VALID,0.0,VALID,98.453,VALID,0.026,VALID,20.36,INVALID,360.0,VALID,0.0,
2019-11-12, 03:28:06,VALID,916.572,VALID,0.0,VALID,98.449,VALID,0.011,VALID,20.336,INVALID,360.0,VALID,0.0,
2019-11-12, 03:29:06,VALID,916.552,VALID,0.0,VALID,98.523,VALID,0.015,VALID,20.326,INVALID,360.0,VALID,0.0,
2019-11-12, 03:30:06,VALID,916.539,VALID,0.0,VALID,98.66,VALID,0.019,VALID,20.343,INVALID,360.0,VALID,0.0,
2019-11-12, 03:31:06,VALID,916.514,VALID,0.0,VALID,98.7,VALID,0.031,VALID,20.339,INVALID,360.0,VALID,0.0,
2019-11-12, 03:32:06,VALID,916.508,VALID,0.0,VALID,98.606,VALID,0.021,VALID,20.318,INVALID,360.0,VALID,0.0,
2019-11-12, 03:33:06,VALID,916.497,VALID,0.0,VALID,98.732,VALID,0.035,VALID,20.343,INVALID,360.0,VALID,0.0,
2019-11-12, 03:34:06,VALID,916.474,VALID,0.0,VALID,98.771,VALID,0.023,VALID,20.359,INVALID,360.0,VALID,0.0,
2019-11-12, 03:35:06,VALID,916.493,VALID,0.0,VALID,98.649,VALID,0.02,VALID,20.315,INVALID,360.0,VALID,0.0,
2019-11-12, 03:36:06,VALID,916.479,VALID,0.0,VALID,98.662,VALID,0.019,VALID,20.285,INVALID,360.0,VALID,0.0,
2019-11-12, 03:37:06,VALID,916.472,VALID,0.0,VALID,98.767,VALID,0.039,VALID,20.279,INVALID,360.0,VALID,0.0,
2019-11-12, 03:38:06,VALID,916.462,VALID,0.0,VALID,98.868,VALID,0.058,VALID,20.265,INVALID,360.0,VALID,0.0,